When you browse on this site, cookies collect data to enhance your experience and personalize the content and advertising you see.
Visit our Privacy Policy to learn more. By continuing to use the site, you agree to this use of cookies and data.
  • In Österreich
  • Länderverzeichnis
  • Für 7 Tage
  • Wassertemperatur
  • Satellitenkarten
  • Wetterkarte
  • News
  • Widgets
  • user-avatar
    Anmelden

    Stündliche Wetter Albany

    Heute, 20 März, Mittwoch

    Zeit Temperatur Niederschläge Wind Luftdruck Luftfeuchtigkeit
    00:00 +22°C° 0.3 mm 1 m/S 755 mmHg 86%
    01:00 +22°C° 0.3 mm 1 m/S 755 mmHg 86%
    02:00 +21°C° 0 mm 2 m/S 755 mmHg 83%
    03:00 +22°C° 0 mm 1 m/S 755 mmHg 84%
    04:00 +21°C° 0 mm 1 m/S 755 mmHg 86%
    05:00 +21°C° 0 mm 1 m/S 755 mmHg 87%
    06:00 +21°C° 0 mm 2 m/S 755 mmHg 87%
    07:00 +21°C° 0 mm 2 m/S 755 mmHg 86%
    08:00 +23°C° 0 mm 2 m/S 756 mmHg 85%
    09:00 +24°C° 0 mm 3 m/S 756 mmHg 82%
    10:00 +25°C° 0 mm 3 m/S 756 mmHg 78%
    11:00 +26°C° 0 mm 4 m/S 756 mmHg 74%
    12:00 +25°C° 0 mm 4 m/S 756 mmHg 75%
    13:00 +25°C° 0 mm 4 m/S 756 mmHg 75%
    14:00 +23°C° 0 mm 5 m/S 756 mmHg 79%
    15:00 +23°C° 0.1 mm 5 m/S 756 mmHg 82%
    16:00 +22°C° 0.1 mm 5 m/S 756 mmHg 84%
    17:00 +21°C° 0.1 mm 4 m/S 756 mmHg 87%
    18:00 +21°C° 0 mm 5 m/S 757 mmHg 88%
    19:00 +21°C° 0 mm 5 m/S 757 mmHg 89%
    20:00 +20°C° 0 mm 5 m/S 757 mmHg 90%
    21:00 +20°C° 0 mm 5 m/S 757 mmHg 90%
    22:00 +20°C° 0 mm 5 m/S 757 mmHg 90%
    23:00 +20°C° 0 mm 5 m/S 757 mmHg 90%

    Morgen, 21 März, Donnerstag

    Zeit Temperatur Niederschläge Wind Luftdruck Luftfeuchtigkeit
    00:00 +20°C° 0.1 mm 5 m/S 757 mmHg 90%
    01:00 +20°C° 0.1 mm 5 m/S 757 mmHg 90%
    02:00 +20°C° 0.1 mm 5 m/S 757 mmHg 91%
    03:00 +20°C° 0 mm 5 m/S 756 mmHg 91%
    04:00 +20°C° 0 mm 5 m/S 756 mmHg 92%
    05:00 +20°C° 0 mm 4 m/S 756 mmHg 93%
    06:00 +20°C° 0.7 mm 4 m/S 756 mmHg 93%
    07:00 +20°C° 0.7 mm 4 m/S 756 mmHg 93%
    08:00 +20°C° 0.7 mm 4 m/S 756 mmHg 93%
    09:00 +20°C° 1.3 mm 4 m/S 756 mmHg 93%
    10:00 +20°C° 1.3 mm 4 m/S 756 mmHg 93%
    11:00 +21°C° 1.3 mm 3 m/S 756 mmHg 93%
    12:00 +21°C° 0.3 mm 3 m/S 756 mmHg 91%
    13:00 +23°C° 0.3 mm 2 m/S 755 mmHg 89%
    14:00 +23°C° 0.3 mm 2 m/S 755 mmHg 87%
    15:00 +22°C° 0 mm 3 m/S 755 mmHg 89%
    16:00 +21°C° 0 mm 3 m/S 755 mmHg 90%
    17:00 +21°C° 0 mm 4 m/S 755 mmHg 92%
    18:00 +21°C° 0.2 mm 4 m/S 755 mmHg 93%
    19:00 +21°C° 0.2 mm 4 m/S 755 mmHg 93%
    20:00 +20°C° 0.2 mm 5 m/S 756 mmHg 94%
    21:00 +20°C° 0.1 mm 4 m/S 756 mmHg 93%
    22:00 +20°C° 0.1 mm 4 m/S 756 mmHg 93%
    23:00 +20°C° 0.1 mm 4 m/S 756 mmHg 93%

    übermorgen, 22 März, Freitag

    Zeit Temperatur Niederschläge Wind Luftdruck Luftfeuchtigkeit
    00:00 +20°C° 0.1 mm 5 m/S 756 mmHg 93%
    01:00 +20°C° 0.1 mm 5 m/S 755 mmHg 93%
    02:00 +19°C° 0.1 mm 6 m/S 755 mmHg 93%
    03:00 +19°C° 0 mm 6 m/S 755 mmHg 93%
    04:00 +19°C° 0 mm 6 m/S 755 mmHg 92%
    05:00 +19°C° 0 mm 6 m/S 755 mmHg 92%
    06:00 +19°C° 0.1 mm 6 m/S 756 mmHg 92%
    07:00 +19°C° 0.1 mm 6 m/S 756 mmHg 91%
    08:00 +17°C° 0.1 mm 6 m/S 757 mmHg 91%
    09:00 +17°C° 0.1 mm 6 m/S 757 mmHg 90%
    10:00 +17°C° 0.1 mm 6 m/S 758 mmHg 89%
    11:00 +17°C° 0.1 mm 6 m/S 758 mmHg 87%
    12:00 +17°C° 0 mm 6 m/S 758 mmHg 83%
    13:00 +17°C° 0 mm 6 m/S 758 mmHg 80%
    14:00 +17°C° 0 mm 6 m/S 758 mmHg 76%
    15:00 +17°C° 0.1 mm 6 m/S 758 mmHg 75%
    16:00 +16°C° 0.1 mm 6 m/S 758 mmHg 75%
    17:00 +16°C° 0.1 mm 6 m/S 758 mmHg 74%
    18:00 +16°C° 0.1 mm 6 m/S 759 mmHg 74%
    19:00 +16°C° 0.1 mm 5 m/S 760 mmHg 73%
    20:00 +16°C° 0.1 mm 5 m/S 760 mmHg 72%
    21:00 +15°C° 0.1 mm 5 m/S 761 mmHg 75%
    22:00 +15°C° 0.1 mm 6 m/S 761 mmHg 77%
    23:00 +15°C° 0.1 mm 6 m/S 761 mmHg 80%

    23 März, Samstag

    Zeit Temperatur Niederschläge Wind Luftdruck Luftfeuchtigkeit
    00:00 +14°C° 0.1 mm 6 m/S 761 mmHg 79%
    01:00 +14°C° 0.1 mm 6 m/S 761 mmHg 78%
    02:00 +14°C° 0.1 mm 6 m/S 761 mmHg 76%
    03:00 +14°C° 0 mm 5 m/S 761 mmHg 75%
    04:00 +13°C° 0 mm 5 m/S 761 mmHg 74%
    05:00 +13°C° 0 mm 5 m/S 761 mmHg 72%
    06:00 +13°C° 0 mm 5 m/S 762 mmHg 70%
    07:00 +14°C° 0 mm 4 m/S 762 mmHg 68%
    08:00 +14°C° 0 mm 4 m/S 762 mmHg 65%
    09:00 +14°C° 0 mm 4 m/S 762 mmHg 62%
    10:00 +15°C° 0 mm 4 m/S 762 mmHg 59%
    11:00 +17°C° 0 mm 4 m/S 762 mmHg 55%
    12:00 +17°C° 0 mm 4 m/S 762 mmHg 55%
    13:00 +17°C° 0 mm 4 m/S 762 mmHg 55%
    14:00 +17°C° 0 mm 3 m/S 761 mmHg 54%
    15:00 +17°C° 0 mm 3 m/S 761 mmHg 56%
    16:00 +17°C° 0 mm 4 m/S 761 mmHg 57%
    17:00 +17°C° 0 mm 4 m/S 761 mmHg 59%
    18:00 +14°C° 0 mm 3 m/S 761 mmHg 63%
    19:00 +13°C° 0 mm 3 m/S 761 mmHg 68%
    20:00 +13°C° 0 mm 2 m/S 761 mmHg 73%
    21:00 +12°C° 0 mm 3 m/S 761 mmHg 74%
    22:00 +12°C° 0 mm 3 m/S 761 mmHg 76%
    23:00 +12°C° 0 mm 3 m/S 761 mmHg 78%

    24 März, Sonntag

    Zeit Temperatur Niederschläge Wind Luftdruck Luftfeuchtigkeit
    00:00 +12°C° 0 mm 4 m/S 761 mmHg 78%
    01:00 +13°C° 0 mm 4 m/S 760 mmHg 79%
    02:00 +13°C° 0 mm 5 m/S 760 mmHg 79%
    03:00 +13°C° 0 mm 5 m/S 760 mmHg 79%
    04:00 +14°C° 0 mm 5 m/S 760 mmHg 79%
    05:00 +14°C° 0 mm 5 m/S 760 mmHg 79%
    06:00 +15°C° 0.1 mm 5 m/S 760 mmHg 79%
    07:00 +15°C° 0.1 mm 5 m/S 760 mmHg 80%
    08:00 +15°C° 0.1 mm 4 m/S 761 mmHg 80%
    09:00 +16°C° 0.1 mm 5 m/S 761 mmHg 77%
    10:00 +16°C° 0.1 mm 5 m/S 761 mmHg 74%
    11:00 +16°C° 0.1 mm 5 m/S 761 mmHg 71%
    12:00 +16°C° 0 mm 5 m/S 761 mmHg 70%
    13:00 +16°C° 0 mm 5 m/S 761 mmHg 69%
    14:00 +16°C° 0 mm 5 m/S 761 mmHg 68%
    15:00 +17°C° 0 mm 4 m/S 761 mmHg 66%
    16:00 +17°C° 0 mm 4 m/S 761 mmHg 64%
    17:00 +17°C° 0 mm 4 m/S 762 mmHg 63%
    18:00 +15°C° 0 mm 4 m/S 762 mmHg 66%
    19:00 +14°C° 0 mm 4 m/S 763 mmHg 69%
    20:00 +13°C° 0 mm 4 m/S 763 mmHg 72%
    21:00 +13°C° 0 mm 4 m/S 764 mmHg 73%
    22:00 +13°C° 0 mm 4 m/S 764 mmHg 74%
    23:00 +12°C° 0 mm 4 m/S 764 mmHg 76%

    25 März, Montag

    Zeit Temperatur Niederschläge Wind Luftdruck Luftfeuchtigkeit
    00:00 +12°C° 0 mm 4 m/S 764 mmHg 76%
    01:00 +12°C° 0 mm 4 m/S 764 mmHg 77%
    02:00 +12°C° 0 mm 4 m/S 764 mmHg 77%
    03:00 +12°C° 0 mm 4 m/S 764 mmHg 77%
    04:00 +12°C° 0 mm 4 m/S 764 mmHg 76%
    05:00 +12°C° 0 mm 4 m/S 764 mmHg 76%
    06:00 +13°C° 0 mm 4 m/S 765 mmHg 73%
    07:00 +13°C° 0 mm 4 m/S 765 mmHg 71%
    08:00 +14°C° 0 mm 4 m/S 766 mmHg 69%
    09:00 +15°C° 0 mm 5 m/S 765 mmHg 65%
    10:00 +16°C° 0 mm 5 m/S 765 mmHg 61%
    11:00 +17°C° 0 mm 5 m/S 765 mmHg 57%
    12:00 +19°C° 0 mm 5 m/S 765 mmHg 57%
    13:00 +19°C° 0 mm 6 m/S 764 mmHg 56%
    14:00 +20°C° 0 mm 6 m/S 764 mmHg 56%
    15:00 +19°C° 0 mm 6 m/S 764 mmHg 59%
    16:00 +17°C° 0 mm 6 m/S 764 mmHg 61%
    17:00 +17°C° 0 mm 6 m/S 764 mmHg 64%
    18:00 +16°C° 0 mm 6 m/S 764 mmHg 68%
    19:00 +15°C° 0 mm 6 m/S 765 mmHg 73%
    20:00 +14°C° 0 mm 6 m/S 765 mmHg 77%
    21:00 +14°C° 0 mm 6 m/S 765 mmHg 78%
    22:00 +14°C° 0 mm 6 m/S 765 mmHg 79%
    23:00 +14°C° 0 mm 5 m/S 765 mmHg 80%
    Mehr zeigen